Location: Azul
(36.7830°S, 59.8500°W)
Time: 03:48:28
(UTC-03:00)

ISS - Pass Details

Date: 18 July 2017
Orbit: 400 x 408 km, 51.6° (Epoch: 21 July)

Event Time Altitude Azimuth Distance (km) Brightness Sun altitude
Rises 19:01:43 0° 233° (SW) 2,358 0.6 -11.5°
Reaches altitude 10° 19:03:51 10° 238° (WSW) 1,489 -0.4 -12.0°
Maximum altitude 19:07:07 54° 316° (NW) 504 -3.0 -12.6°
Drops below altitude 10° 19:10:21 10° 34° (NE) 1,466 -1.2 -13.2°
Enters shadow 19:12:15 - 38° (NE) 2,246 -0.3 -13.6°
